Location: Northcutt
(34.7304°N, 84.4305°W)
Time: 11:04:21
(UTC+00:00)

Explorer 7 - All Passes

Search period start: 05 October 2022 00:00
Search period end: 15 October 2022 00:00
Orbit: 482 x 667 km, 50.3° (Epoch: 04 October)

Date Brightness Start Highest point End Pass type
(mag) Time Alt. Az. Time Alt. Az. Time Alt. Az.
05 Oct - 12:58:39 10° SSE 13:00:45 13° SE 13:02:54 10° E daylight
05 Oct - 14:35:48 10° SW 14:40:37 88° SE 14:45:28 10° NE daylight
05 Oct - 16:17:46 10° WNW 16:21:35 22° NNW 16:25:22 10° NNE daylight
05 Oct - 18:01:39 10° NNW 18:03:28 12° N 18:05:16 10° NNE daylight
05 Oct - 19:42:38 10° NNW 19:45:33 16° NNE 19:48:24 10° NE daylight
05 Oct - 21:22:21 10° NW 21:26:50 53° NE 21:31:03 10° ESE daylight
05 Oct - 23:03:38 10° W 23:06:53 20° SW 23:10:00 10° S daylight
06 Oct - 12:59:21 10° S 13:02:55 21° SE 13:06:33 10° E daylight
06 Oct - 14:38:17 10° WSW 14:43:03 61° NW 14:47:51 10° NE daylight
06 Oct - 16:20:58 10° WNW 16:24:17 18° NNW 16:27:33 10° NNE daylight
06 Oct - 18:04:34 10° NNW 18:06:18 12° N 18:08:03 10° NNE daylight
06 Oct - 19:44:48 10° NNW 19:48:16 20° NNE 19:51:38 10° ENE daylight
06 Oct - 21:24:41 10° NW 21:29:17 84° NE 21:33:35 10° SE daylight
06 Oct - 23:07:24 10° WSW 23:09:02 12° SW 23:10:39 10° SSW daylight
07 Oct - 13:00:52 10° SSW 13:05:08 34° SE 13:09:30 10° ENE daylight
07 Oct - 14:40:58 10° WSW 14:45:32 41° NNW 14:50:07 10° NE daylight
07 Oct - 16:24:14 10° NW 16:27:01 15° NNW 16:29:47 10° NNE daylight
07 Oct - 18:07:07 10° NNW 18:09:08 12° N 18:11:09 10° NNE daylight
07 Oct - 19:46:59 10° NNW 19:50:56 26° NNE 19:54:43 10° E daylight
07 Oct - 21:27:08 10° NW 21:31:38 60° SW 21:35:52 10° SE daylight
08 Oct - 13:02:47 10° SSW 13:07:24 55° SE 13:12:08 10° ENE daylight
08 Oct - 14:43:50 10° W 14:48:05 30° NNW 14:52:20 10° NNE daylight
08 Oct - 16:27:30 10° NW 16:29:48 13° N 16:32:04 10° NNE daylight
08 Oct - 18:09:26 10° NNW 18:11:56 14° NNE 18:14:24 10° NE daylight
08 Oct - 19:49:10 10° NW 19:53:30 36° NNE 19:57:38 10° E daylight
08 Oct - 21:29:44 10° WNW 21:33:54 35° SW 21:37:51 10° SSE daylight
09 Oct - 11:28:03 10° SSE 11:29:55 12° SE 11:31:48 10° E daylight
09 Oct - 13:04:58 10° SW 13:09:43 87° SE 13:14:35 10° NE daylight
09 Oct - 14:46:51 10° WNW 14:50:41 23° NNW 14:54:31 10° NNE daylight
09 Oct - 16:30:38 10° NNW 16:32:35 12° N 16:34:32 10° NNE daylight
09 Oct - 18:11:38 10° NNW 18:14:41 17° NNE 18:17:39 10° ENE daylight
09 Oct - 19:51:24 10° NW 19:56:00 53° NE 20:00:21 10° ESE daylight
09 Oct - 21:32:37 10° WNW 21:36:05 22° SW 21:39:24 10° S daylight
10 Oct - 11:28:36 10° S 11:32:02 20° SE 11:35:33 10° E daylight
10 Oct - 13:07:25 10° WSW 13:12:06 62° NW 13:16:55 10° NE daylight
10 Oct - 14:50:00 10° WNW 14:53:20 18° NNW 14:56:41 10° NNE daylight
10 Oct - 16:33:29 10° NNW 16:35:23 12° N 16:37:16 10° NNE daylight
10 Oct - 18:13:47 10° NNW 18:17:22 20° NNE 18:20:51 10° ENE daylight
10 Oct - 19:53:42 10° NW 19:58:25 83° NE 20:02:51 10° SE daylight
10 Oct - 21:36:08 10° W 21:38:12 13° SW 21:40:12 10° SSW daylight
11 Oct - 11:30:02 10° SSW 11:34:11 33° SE 11:38:29 10° ENE daylight
11 Oct - 13:10:03 10° WSW 13:14:33 42° NNW 13:19:10 10° NE daylight
11 Oct - 14:53:13 10° NW 14:56:03 15° NNW 14:58:52 10° NNE daylight
11 Oct - 16:36:02 10° NNW 16:38:11 13° N 16:40:18 10° NNE daylight
11 Oct - 18:15:56 10° NNW 18:19:59 27° NNE 18:23:53 10° E daylight
11 Oct - 19:56:05 10° NW 20:00:43 62° SW 20:05:05 10° SE daylight
12 Oct - 11:31:54 10° SSW 11:36:24 53° SE 11:41:05 10° ENE daylight
12 Oct - 13:12:52 10° W 13:17:03 30° NNW 13:21:20 10° NNE daylight
12 Oct - 14:56:26 10° NW 14:58:47 13° N 15:01:08 10° NNE daylight
12 Oct - 16:38:20 10° NNW 16:40:56 14° NNE 16:43:30 10° NE daylight
12 Oct - 18:18:05 10° NW 18:22:31 36° NNE 18:26:45 10° E daylight
12 Oct - 19:58:38 10° WNW 20:02:58 37° SW 20:07:03 10° SSE daylight
13 Oct - 09:57:26 10° SE 09:58:55 11° SE 10:00:26 10° ESE visible
13 Oct - 11:34:03 10° SW 11:38:41 85° SE 11:43:31 10° NE daylight
13 Oct - 13:15:50 10° WNW 13:19:38 23° NNW 13:23:29 10° NNE daylight
13 Oct - 14:59:31 10° NNW 15:01:32 12° N 15:03:33 10° NNE daylight
13 Oct - 16:40:31 10° NNW 16:43:38 17° NNE 16:46:43 10° ENE daylight
13 Oct - 18:20:17 10° NW 18:24:58 53° NE 18:29:27 10° ESE daylight
13 Oct - 20:01:26 10° WNW 20:05:06 23° SW 20:08:38 10° S daylight
14 Oct - 09:57:45 10° S 10:01:00 19° SE 10:04:20 10° E visible
14 Oct - 11:36:26 10° WSW 11:41:01 63° NW 11:45:48 10° NE daylight
14 Oct - 13:18:56 10° WNW 13:22:14 18° NNW 13:25:36 10° NNE daylight
14 Oct - 15:02:21 10° NNW 15:04:18 12° N 15:06:15 10° NNE daylight
14 Oct - 16:42:39 10° NNW 16:46:17 21° NNE 16:49:51 10° ENE daylight
14 Oct - 18:22:32 10° NW 18:27:20 81° NE 18:31:55 10° SE daylight
14 Oct - 20:04:48 10° W 20:07:11 14° SW 20:09:31 10° SSW daylight
